Weather Roundup
Issued by NWS Springfield, MO

Home | Current Version | Previous Version | Text Only | Print | Product List | Glossary On
Versions: 1 2 3 4 5 6 7 8 9 10 11 12 13 14 15 16 17 18 19 20 21 22 23 24 25 26 27 28 29 30 31 32 33 34 35 36 37 38 39 40 41 42 43 44 45 46 47 48 49 50
000
NZUS99 KSGF 222207
HRRSGF

HOURLY WEATHER
NATIONAL WEATHER SERVICE SPRINGFIELD MO
500 PM CDT FRI SEP 22 2017

......SGF CWA......

CITY           SKY/WX    TMP DP  RH WIND       PRES   REMARKS
SPRINGFIELD    MOSUNNY   90  66  45 SE9       29.99S HX  92
JOPLIN         SUNNY     86  68  54 S10       29.97S
WEST PLAINS    PTSUNNY   90  63  40 SW8       30.02F HX  91
ROLLA          SUNNY     87  64  46 S7        30.01S
OSAGE BEACH    MOSUNNY   91  68  46 S6        29.98  HX  95
BRANSON        MOSUNNY   91  63  38 S9        30.01S HX  92

......SURROUNDING SGF CWA......

CITY           SKY/WX    TMP DP  RH WIND       PRES   REMARKS
CHANUTE        MOSUNNY   89  68  49 S18       29.93S HX  93
PARSONS        MOSUNNY   89  68  49 S8G18     29.94S HX  93
COFFEYVILLE    SUNNY     89  68  49 S16G23    29.92F HX  93
EMPORIA        MOSUNNY   89  68  49 S18G25    29.89F HX  93
GROVE OK       SUNNY     90  68  48 S10G16    29.98S HX  93
ROGERS AR      SUNNY     88  67  49 SE9       30.00F HX  91
SILOAM SPRINGS SUNNY     88  66  48 S10       29.99F HX  90
HARRISON AR    SUNNY     89  63  41 S7        30.00F HX  90
NEAR YELLVILLE CLOUDY    92  67  43 E8        29.97F HX  95

......KANSAS AND MISSOURI......

CITY           SKY/WX    TMP DP  RH WIND       PRES   REMARKS
KANSAS CTY INT MOSUNNY   87  70  56 S17       29.93S HX  92
DOWNTOWN KC    SUNNY     90  69  50 S17G24    29.92S HX  94
COLUMBIA       SUNNY     90  66  45 S8        29.99S HX  92
SEDALIA        SUNNY     90  69  50 S13G20    29.98F HX  94
ST JOSEPH      SUNNY     89  70  53 S21       29.90S HX  94
ST LOUIS       MOSUNNY   94  60  32 SE12      29.98F HX  94
SPIRIT OF STL  MOSUNNY   93  59  31 VRB5      29.97S HX  92
KIRKSVILLE     SUNNY     88  67  49 S12       29.97F HX  91
WICHITA        MOSUNNY   92  66  42 S22G35    29.85F HX  94
TOPEKA         SUNNY     90  70  51 S20       29.89S HX  95
OLATHE         SUNNY     86  70  58 S10       29.94S HX  90

......TENNESSEE......

CITY           SKY/WX    TMP DP  RH WIND       PRES   REMARKS
MEMPHIS        MOSUNNY   91  66  43 N6        29.97F HX  93
NASHVILLE      MOSUNNY   90  66  45 N6        30.01S HX  92

......ARKANSAS.......

CITY           SKY/WX    TMP DP  RH WIND       PRES   REMARKS
FAYETTEVILLE   MOSUNNY   86  68  54 S9        29.99F
FT SMITH       PTSUNNY   94  65  38 VRB7      29.92F HX  96
LITTLE ROCK    MOSUNNY   91  66  43 VRB3      29.95F HX  93

......OKLAHOMA.......

CITY           SKY/WX    TMP DP  RH WIND       PRES   REMARKS
TULSA          MOSUNNY   90  67  46 S14G28    29.90F HX  93
PONCA CITY     MOSUNNY   89  68  49 S15G22    29.88S HX  93
MCALESTER      SUNNY     90  66  45 VRB7      29.94F HX  92
OKLAHOMA CITY  MOSUNNY   88  67  49 S15       29.91F HX  91

......IOWA............

CITY           SKY/WX    TMP DP  RH WIND       PRES   REMARKS
DES MOINES     MOSUNNY   91  68  46 S16G24    29.89S HX  95
QUAD CITIES    SUNNY     92  64  39 S9        29.97S HX  93

......ILLINOIS........

CITY           SKY/WX    TMP DP  RH WIND       PRES   REMARKS
QUINCY         SUNNY     91  62  37 S10       29.98S HX  91
CHICAGO        MOSUNNY   93  63  36 S9        30.01S HX  94




USA.gov is the U.S. government's official web portal to all federal, state and local government web resources and services.